Weather in Nizhniy Karachan

Russia / Voronezh Oblast     51°20′27″N   41°45′27″E
temp.,
°C
wind,
m/s
gust,
m/s
humid.,
%
clouds,
%
prec.,
mm/h
press.,
hPa
HPBL,
m
27 february, sat
sat2700:00+2wnw51298100 0.1 1008406
03:00+1w51194100 0.1 1008360
06:00+2w61294100 0.0 1007543
09:00+2w61290100 0.0 1007620
12:00+2w61194100 0.0 1006741
15:00+2wnw7139699 0.1 1006833
18:00+1nw71397100 0.1 1008828
21:00−6nnw5118367 0.3 1010562
28 february, sun
sun2800:00−7nnw48850 0.0 1012517
03:00−8nw388718 0.0 1014457
06:00−8nw38870 0.0 1015422
09:00−7nw478410 0.0 1015459
12:00−5nw358194 0.0 1016574
15:00−4nw358096 0.1 1016641
18:00−5nw2689100 0.0 1017461
21:00−6nnw229385 0.0 101959
1 march, mon
mon100:00−7nne229576 0.0 102058
03:00−8nne229263 0.0 102178
06:00−9n23920 0.0 102299
09:00−8n23830 0.0 1025226
12:00−4nnw237557 0.0 1025520
15:00−3nw247776 0.0 1026611
18:00−5w228891 0.0 102541
21:00−4wsw239093 0.0 102662
2 march, tue
tue200:00−3wsw3990100 0.0 1024392
03:00−3wsw41289100 0.0 1022453
06:00−2wsw61385100 0.0 1018562
09:00−1wsw81595100 0.5 1015713
12:00+1w81397100 1.3 1013790
15:00+1wnw61195100 1.4 1012723
18:000wnw5119397 0.1 1011552
21:00−1nw5138955 0.1 1013465
3 march, wed
wed300:00−1wnw5129598 0.2 1013563
03:00−1nw5119199 0.3 1013808
06:00−2nw5128931 0.0 1014512
09:00−1nw6108649 0.1 1015839
12:000nw6980100 0.1 1016995
15:000nw6975100 0.2 1017937
18:00−1nw5108889 0.1 1018915
21:00−2nw5108492 0.1 1020690